This is the latest recevied weather packets stored in our database for station/object KB1WCR. If no packets are shown the sender has not sent any weather packets the latest 10 day(s).
| Time | Temp. | Humidity | Pressure | Rain* | Wind** | Luminosity | Snow |
|---|---|---|---|---|---|---|---|
| 1777916038 | 18.33° C | 41% | 1005.5 hPa | 0 mm | - | 125 W/m² | - |
| 1777915735 | 18.33° C | 41% | 1005.4 hPa | 0 mm | - | 133 W/m² | - |
| 1777915432 | 18.33° C | 42% | 1005.7 hPa | 0 mm | - | 182 W/m² | - |
| 1777915127 | 18.33° C | 40% | 1005.3 hPa | 0 mm | - | 143 W/m² | - |
| 1777914825 | 18.89° C | 41% | 1005.6 hPa | 0 mm | - | 164 W/m² | - |
| 1777914522 | 19.44° C | 41% | 1005.2 hPa | 0 mm | - | 313 W/m² | - |
| 1777914218 | 19.44° C | 40% | 1005.1 hPa | 0 mm | - | 385 W/m² | - |
| 1777913915 | 19.44° C | 41% | 1005.2 hPa | 0 mm | - | 340 W/m² | - |
| 1777913612 | 20° C | 41% | 1005.1 hPa | 0 mm | - | 419 W/m² | - |
| 1777913308 | 19.44° C | 43% | 1005.1 hPa | 0 mm | - | 382 W/m² | - |
| 1777913005 | 20° C | 42% | 1005.2 hPa | 0 mm | - | 609 W/m² | - |
| 1777912701 | 20° C | 43% | 1005.4 hPa | 0 mm | - | 839 W/m² | - |
| 1777912397 | 19.44° C | 43% | 1005 hPa | 0 mm | - | 836 W/m² | - |
| 1777912094 | 18.89° C | 44% | 1005.3 hPa | 0 mm | - | 917 W/m² | - |
| 1777911789 | 18.89° C | 44% | 1005.3 hPa | 0 mm | - | 519 W/m² | - |
| 1777911486 | 19.44° C | 43% | 1005.2 hPa | 0 mm | - | 859 W/m² | - |
| 1777911183 | 19.44° C | 44% | 1005.2 hPa | 0 mm | - | 866 W/m² | - |
| 1777910881 | 18.89° C | 43% | 1005.3 hPa | 0 mm | - | 855 W/m² | - |
| 1777910577 | 18.89° C | 46% | 1005.3 hPa | 0 mm | - | 812 W/m² | - |
| 1777910275 | 18.33° C | 47% | 1005.5 hPa | 0 mm | - | 789 W/m² | - |
| 1777909971 | 18.33° C | 45% | 1005.7 hPa | 0 mm | - | 777 W/m² | - |
| 1777909668 | 18.33° C | 47% | 1005.7 hPa | 0 mm | - | 766 W/m² | - |
| 1777909365 | 17.78° C | 50% | 1005.6 hPa | 0 mm | - | 788 W/m² | - |
| 1777909063 | 17.78° C | 49% | 1005.9 hPa | 0 mm | - | 788 W/m² | - |
| 1777908761 | 17.78° C | 49% | 1006 hPa | 0 mm | - | 747 W/m² | - |
* Rain latest hour (hover to see other rain measurements)
** Current wind speed in m/s (hover to see current wind gust speed)